Probability
0 0 0 0 0 0 0 0 0 0 0 0 0 0 0 0 0 1 3 5 7 9 10 9 8 6 5 5 6 6 7 8 6 5 5 6 6 6 4 2 0 0 0 0
0 0 0 0 0 0 0 0 0 0 0 0 0 0 0 0 0 1 3 6 7 9 10 9 8 6 6 5 5 6 8 9 8 7 6 6 6 6 5 3 1 0 0 0
0 0 0 0 0 0 0 0 0 0 0 0 0 0 0 0 0 1 3 5 6 7 8 8 7 6 6 6 5 6 7 8 9 8 8 7 7 8 7 5 3 2 1 1
0 0 0 0 0 0 0 0 0 0 0 0 0 0 0 0 0 1 3 4 3 3 4 6 6 6 7 7 6 6 7 8 8 8 8 9 10 11 11 9 6 5 4 3
0 0 0 0 0 0 0 0 0 0 0 0 0 0 0 0 0 1 2 2 1 1 2 3 4 5 6 7 7 7 8 8 8 7 7 9 11 13 14 12 9 7 6 6
0 0 0 0 0 0 0 0 0 0 0 0 0 0 0 0 0 0 1 1 0 0 1 2 3 5 6 7 8 9 9 8 7 6 6 7 8 10 11 10 9 8 7 7
0 0 0 0 0 0 0 0 0 0 0 0 0 0 0 0 0 0 0 0 0 0 1 1 3 4 4 5 7 8 8 7 6 4 4 4 5 6 6 7 7 7 7 6
0 0 0 0 0 0 0 0 0 0 0 0 0 0 0 0 0 0 0 0 0 0 0 1 2 3 3 2 3 6 6 6 5 4 3 3 3 3 4 4 4 5 5 4
0 0 0 0 0 0 0 0 0 0 0 0 0 0 0 0 0 0 0 0 0 0 0 1 2 3 2 1 2 5 5 5 5 4 3 3 3 3 3 4 4 3 3 3
0 0 0 0 0 0 0 0 0 0 0 0 0 0 0 0 0 0 0 0 0 0 0 0 1 2 2 2 4 6 6 5 5 5 4 4 3 3 4 5 5 4 3 3
0 0 0 0 0 0 0 0 0 0 0 0 0 0 0 0 0 0 0 0 0 1 1 0 0 1 3 4 6 6 6 6 5 5 5 5 4 3 4 5 4 4 3 3
0 0 0 0 0 0 0 0 0 0 0 0 0 0 0 0 0 0 0 1 1 2 2 1 1 2 4 6 6 6 6 6 5 4 4 4 3 1 1 2 2 2 2 2
0 0 0 0 0 0 0 0 0 0 0 0 0 0 0 0 0 0 1 2 3 3 3 3 2 3 4 5 6 6 6 5 4 3 3 2 1 0 0 0 0 1 1 1
0 0 0 0 0 0 0 0 0 0 0 0 0 0 0 0 0 0 1 2 2 2 2 2 2 2 3 4 4 4 4 3 3 2 2 1 0 0 0 0 0 0 0 0
0 0 0 0 0 0 0 0 0 0 0 0 0 0 0 0 0 0 0 1 1 1 1 1 1 1 1 2 2 2 2 1 1 1 1 0 0 0 0 0 0 0 0 0
0 0 0 0 0 0 0 0 0 0 0 0 0 0 0 0 0 0 0 0 0 0 0 0 0 0 0 1 1 1 1 0 0 0 0 0 0 0 0 0 0 0 0 0
0 0 0 0 0 0 0 0 0 0 0 0 0 0 0 0 0 0 0 0 0 0 0 0 0 0 0 0 0 0 0 0 0 0 0 0 0 0 0 0 0 0 0 0
0 0 0 0 0 0 0 0 0 0 0 0 0 0 0 0 0 0 0 0 0 0 0 0 0 0 0 0 0 0 0 0 0 0 0 0 0 0 0 0 0 0 0 0
0 0 0 0 0 0 0 0 0 0 0 0 0 0 0 0 0 0 0 0 0 0 0 0 0 0 0 0 0 0 0 0 0 0 0 0 0 0 0 0 0 0 0 0
0 0 0 0 0 0 0 0 0 0 0 0 0 0 0 0 0 0 0 0 0 0 0 0 0 0 0 0 0 0 0 0 0 0 0 0 0 0 0 0 0 0 0 0
0 0 0 0 0 0 0 0 0 0 0 0 0 0 0 0 0 0 0 0 0 0 0 0 0 0 0 0 0 0 0 0 0 0 0 0 0 0 0 0 0 0 0 0
0 0 0 0 0 0 0 0 0 0 0 0 0 0 0 0 0 0 0 0 0 0 0 0 0 0 0 0 0 0 0 0 0 0 0 0 0 0 0 0 0 0 0 0
0 0 0 0 0 0 0 0 0 0 0 0 0 0 0 0 0 0 0 0 0 0 0 0 0 0 0 0 0 0 0 0 0 0 0 0 0 0 0 0 0 0 0 0
0 0 0 0 0 0 0 0 0 0 0 0 0 0 0 0 0 0 0 0 0 0 0 0 0 0 0 0 0 0 0 0 0 0 0 0 0 0 0 0 0 0 0 0
0 0 0 0 0 0 0 0 0 0 0 0 0 0 0 0 0 0 0 0 0 0 0 0 0 0 0 0 0 0 0 0 0 0 0 0 0 0 0 0 0 0 0 0
0 0 0 0 0 0 0 0 0 0 0 0 0 0 0 0 0 0 0 0 0 0 0 0 0 0 0 0 0 0 0 0 0 0 0 0 0 0 0 0 0 0 0 0
0 0 0 0 0 0 0 0 0 0 0 0 0 0 0 0 0 0 0 0 0 0 0 0 0 0 0 0 0 0 0 0 0 0 0 0 0 0 0 0 0 0 0 0
Wind_Speed
8 7 7 8 8 7 9 8 8 6 3 2 1 2 2 1 1 2 1 2 2 1 1 2 3 4 4 4 5 5 5 4 4 3 3 3 2 2 1 1 1 1 1 0
9 8 8 8 8 7 8 8 8 6 5 2 2 3 2 2 1 1 1 2 2 1 2 2 2 3 4 4 4 5 4 4 3 3 2 3 2 2 2 1 1 1 1 1
8 7 7 7 6 6 6 6 5 5 3 2 2 2 2 2 2 2 2 2 2 1 1 1 2 3 3 4 4 4 4 4 4 3 2 2 2 2 2 2 1 1 1 1
7 6 8 1 2 1 2 2 2 2 2 2 2 2 2 1 2 2 2 2 1 1 0 0 0 1 3 3 4 4 4 3 3 3 3 3 3 2 2 2 1 1 1 2
4 6 6 2 1 1 2 2 1 1 1 1 2 2 1 3 3 3 2 2 2 1 1 0 0 0 1 3 3 3 4 3 3 3 3 3 3 2 2 1 1 2 2 2
5 5 4 3 4 2 2 2 3 3 1 0 1 1 1 3 3 3 2 1 2 2 2 1 0 1 2 3 3 3 4 3 3 3 3 3 4 3 2 2 2 2 2 2
6 6 2 4 3 2 1 2 4 3 3 1 1 1 2 3 3 3 2 2 2 2 2 1 1 1 1 2 2 2 3 3 3 3 4 3 3 2 2 2 2 2 2 2
5 6 2 4 2 1 3 4 4 4 3 3 3 3 3 3 2 3 2 2 2 1 1 1 1 1 1 1 1 1 2 2 3 3 3 3 3 3 3 2 2 3 2 2
2 1 3 3 3 4 5 4 4 4 3 2 2 2 3 3 2 2 2 2 2 1 1 1 1 0 1 1 1 1 2 2 2 3 3 3 3 3 2 2 2 2 2 2
3 1 2 2 3 4 4 4 4 4 3 2 2 2 2 3 2 2 2 1 1 1 1 2 1 1 1 0 0 1 2 2 2 2 2 2 2 3 2 2 2 2 2 2
5 3 2 2 3 3 4 4 4 3 3 2 1 2 2 2 3 2 2 2 2 2 2 2 2 1 1 1 1 1 2 2 2 2 2 2 1 1 2 2 3 3 2 2
4 3 3 3 4 5 4 4 4 4 3 3 2 2 3 3 2 3 3 2 2 2 2 2 2 1 1 1 1 1 1 1 1 1 1 2 2 0 1 3 4 5 5 4
4 5 4 4 4 5 5 5 4 4 3 3 3 3 3 3 3 3 3 3 3 2 2 2 1 1 1 1 2 2 2 1 1 1 2 2 2 2 1 1 2 4 5 5
4 4 4 4 4 5 5 6 5 4 4 4 4 3 3 3 3 3 3 3 3 2 2 2 1 1 1 1 1 1 1 1 1 1 2 2 2 2 2 3 2 2 3 5
3 4 4 4 4 5 5 5 5 5 5 4 3 3 3 3 4 4 4 3 3 3 2 2 2 1 1 1 1 1 1 1 1 1 1 2 2 2 2 3 3 2 2 2
3 3 4 3 4 4 4 5 5 5 5 5 5 4 4 4 4 4 4 3 3 3 2 2 2 2 1 0 1 1 1 2 2 2 2 2 2 2 2 3 3 3 3 3
2 3 3 4 4 4 5 5 5 5 5 5 5 5 5 4 5 4 4 3 3 3 2 2 2 1 0 1 1 1 1 2 4 3 2 2 2 2 2 2 3 3 3 3
3 3 4 4 5 5 5 5 5 5 5 5 5 5 5 4 5 5 4 4 3 3 3 2 1 0 0 1 1 1 1 2 2 2 2 2 2 2 2 2 2 2 2 3
3 3 4 5 5 5 5 5 6 5 5 5 4 4 4 4 5 5 4 4 3 3 3 1 1 1 1 1 1 1 2 2 2 2 2 2 2 2 2 2 2 2 2 2
3 3 4 4 5 5 5 5 5 5 5 5 5 5 5 4 4 4 4 3 3 3 2 1 1 1 1 1 1 1 2 2 2 2 2 2 3 2 2 2 2 2 2 2
3 3 4 4 5 5 5 5 5 5 5 5 5 5 5 5 4 4 4 4 4 3 3 2 1 1 1 1 2 2 2 2 2 2 2 2 2 2 2 2 2 2 2 2
3 3 4 5 5 5 5 5 5 5 5 5 5 5 5 5 4 4 3 3 3 4 2 2 2 2 2 2 2 2 2 2 2 2 2 2 2 2 2 2 2 2 2 2
4 4 4 5 6 6 6 5 5 4 5 5 4 5 5 4 3 3 4 3 2 4 3 2 3 3 3 2 2 2 2 2 2 1 1 1 1 1 1 2 2 2 2 1
4 5 5 5 6 6 6 5 5 4 4 4 4 4 4 3 3 3 3 4 4 4 3 3 3 4 3 2 2 2 2 1 1 1 1 1 1 1 1 1 1 1 1 1
4 5 5 5 5 4 5 6 5 4 4 3 4 4 4 3 3 3 3 3 4 4 2 3 4 4 2 2 2 1 1 2 2 1 1 1 1 1 1 1 1 1 1 2
4 4 3 4 4 3 4 4 4 3 3 3 3 3 3 3 3 3 3 3 4 4 2 1 2 2 1 1 1 1 1 2 2 2 1 1 2 2 1 1 2 1 2 2
4 4 3 3 3 3 3 3 4 4 4 3 3 3 4 3 3 3 3 3 2 2 2 1 1 1 1 1 1 1 2 1 1 1 1 1 1 1 1 2 2 2 2 2
Wind_Direction
288 290 284 274 269 257 252 259 265 285 300 315 60 89 93 100 60 64 69 93 100 126 147 158 163 169 168 169 163 163 164 170 179 179 176 169 161 161 176 196 217 203 210 196
280 272 274 274 273 267 264 266 273 283 291 350 47 69 56 42 46 51 38 60 61 112 146 164 177 175 169 165 163 162 165 164 160 170 170 164 166 162 169 193 215 197 194 172
274 276 277 265 261 253 256 264 260 271 285 21 46 53 31 8 23 49 23 51 31 8 69 179 185 179 167 163 157 161 165 161 165 165 162 162 166 168 180 190 196 170 185 170
276 273 258 258 23 357 286 308 323 341 29 49 50 43 37 19 22 42 34 16 15 344 323 284 183 150 161 152 155 161 158 156 162 164 169 165 162 176 188 184 175 185 200 191
265 269 261 209 16 333 268 285 332 325 15 34 57 45 32 31 25 26 42 10 341 327 280 172 86 117 148 150 159 163 160 164 168 169 169 167 172 182 177 172 185 201 199 191
263 268 269 60 50 6 294 253 11 358 357 112 24 300 338 23 20 21 45 26 352 356 5 59 108 165 156 161 169 175 170 174 176 173 177 187 187 185 180 191 203 206 222 205
252 259 261 60 48 28 298 359 12 8 12 7 322 14 38 25 24 27 32 23 15 14 12 20 27 44 177 170 181 180 172 171 177 184 191 190 183 179 188 199 202 212 221 222
241 249 246 64 71 17 11 27 20 9 11 25 29 45 36 22 18 17 16 17 12 12 18 353 11 212 200 196 188 155 158 178 189 189 197 187 172 183 195 196 207 220 218 219
274 285 50 70 43 28 25 7 8 3 12 31 12 17 10 356 354 358 0 5 2 360 343 329 338 287 238 248 153 147 169 195 199 190 188 183 180 188 198 196 202 214 209 213
285 285 34 36 37 21 6 357 353 354 359 359 344 343 345 340 334 336 343 347 332 318 290 291 299 285 226 267 176 172 198 207 202 193 193 186 179 186 193 197 201 206 208 220
281 316 348 6 355 345 350 349 345 343 339 327 328 322 321 320 324 325 329 328 311 301 294 288 289 283 274 221 197 213 217 209 211 195 181 178 178 197 201 201 193 197 207 209
287 317 313 317 339 348 346 334 329 328 331 336 330 312 318 320 317 310 305 301 292 288 289 280 276 271 252 221 201 216 222 213 204 185 179 176 168 200 228 209 210 213 220 221
322 342 347 347 348 341 328 320 323 331 331 328 328 330 326 314 306 306 302 294 289 279 275 278 280 262 247 235 225 222 223 216 192 188 189 189 192 193 211 264 228 221 222 226
352 341 336 341 333 330 329 330 331 333 334 330 328 330 329 311 306 303 300 298 292 285 277 268 260 265 258 237 228 219 216 226 221 204 202 207 212 211 200 199 213 242 228 217
339 339 333 341 344 343 343 338 332 329 328 323 324 326 326 315 305 304 303 300 295 285 276 272 270 260 253 242 240 225 208 210 211 207 212 221 224 224 219 216 212 212 212 207
328 340 350 343 339 338 336 329 322 320 323 325 325 325 323 319 311 303 304 302 291 285 283 272 268 260 228 231 263 250 217 224 236 223 216 216 218 222 224 222 220 216 214 202
327 327 327 323 325 326 325 323 321 320 320 318 317 319 319 318 313 303 304 303 296 290 286 273 268 262 226 236 251 245 232 215 228 236 227 224 218 220 224 227 231 231 225 208
338 337 331 324 323 324 323 322 320 320 318 315 314 315 317 314 307 305 305 307 306 304 295 288 294 315 266 256 249 235 237 229 226 236 235 225 230 232 237 235 240 250 244 216
352 345 337 331 328 323 320 319 318 315 312 312 310 306 306 305 305 307 309 306 297 291 295 320 315 281 259 254 278 242 239 244 246 253 244 226 232 235 232 225 227 240 247 244
348 343 335 326 323 319 316 315 315 313 314 315 311 309 310 314 316 313 310 303 296 298 310 327 283 257 249 239 261 252 247 250 246 240 237 226 225 230 230 223 216 227 236 237
333 331 326 323 321 319 315 313 312 310 313 315 308 305 307 312 316 316 311 302 306 317 313 302 276 267 250 273 262 252 247 251 248 238 235 231 225 219 222 221 220 227 233 232
328 325 325 323 321 319 318 316 315 313 314 312 309 307 305 306 307 306 300 298 310 323 316 287 272 267 269 269 249 248 245 245 242 239 244 237 224 218 217 213 215 225 227 219
323 323 321 321 319 316 317 317 316 313 308 303 304 306 302 302 303 300 298 307 315 314 306 289 293 282 268 251 244 244 241 238 235 231 238 238 239 232 218 216 213 209 209 210
317 318 316 317 317 314 314 316 315 311 309 306 304 303 303 302 300 299 303 313 316 308 295 287 281 269 263 253 251 242 240 241 238 238 244 246 247 233 213 215 217 206 208 222
309 310 313 315 312 309 310 314 316 313 310 310 313 315 312 309 304 308 312 314 313 307 301 284 275 271 261 254 254 242 240 247 250 244 232 235 231 219 218 222 214 209 220 229
307 307 306 304 304 307 310 310 310 312 311 307 311 319 320 316 313 314 312 310 314 317 320 304 295 284 275 269 272 265 252 255 254 242 240 241 230 216 216 220 220 222 231 233
305 303 301 302 303 306 306 305 308 311 313 309 311 313 314 318 323 323 323 322 321 320 317 314 315 309 296 279 277 277 272 262 249 245 245 244 233 223 217 225 229 225 229 236